[[{"header":{"parameterUnit":"m.s-1","parameterCategory":1,"la1":30.2991,"la2":30.254,"lo1":-89.0895,"lo2":-89.0444,"dy":0.0017,"dx":0.0017,"nx":28,"ny":28,"refTime":"2024-07-29T09:00:00:Z","depth":0,"parameterNumber":2,"parameterNumberName":"U-component_of_WINDS"},"data":[0,0,0,0,0,0,0,0,0,0,0,0,0,0,0,0,0,0,0,0,0,0,0,0,0,0,0,0,0,0,0,0,0,0,0,0,0,0,0,0,0,0,0,0,0,0,0,0,0,0,0,0,0,0,0,0,0,0,4.4839,4.4841,0,4.4968,4.497,4.4971,4.4872,4.4868,4.4864,4.4859,4.4997,4.5004,4.5012,0,0,0,0,0,0,0,0,0,0,0,0,0,4.4509,4.4515,4.4839,4.4841,4.4842,4.4968,4.497,4.4972,4.4873,4.4868,4.4862,4.4858,4.4994,4.5003,4.5012,0,0,0,0,0,0,0,0,0,0,0,0,0,4.4647,4.4517,4.4839,4.4808,4.4806,4.4968,4.497,4.4972,4.4874,4.4868,4.4861,4.4855,4.4991,4.5002,4.5014,4.5214,0,0,4.5049,4.5054,0,0,0,0,0,0,0,0,4.4639,4.4659,4.4811,4.481,4.4809,4.4897,4.4904,4.5053,4.4876,4.4849,4.4859,4.4852,4.4969,4.4982,4.5021,4.522,4.5226,4.505,4.5057,4.5062,4.5065,0,0,0,0,0,0,0,4.463,4.4653,4.489,4.4813,4.4812,4.4788,4.4801,4.4932,4.4944,4.485,4.4843,4.486,4.4967,4.501,4.5023,4.5228,4.5049,4.506,4.5067,4.5071,4.5595,4.5602,0,0,0,0,0,0,4.4623,4.4646,4.4886,4.4894,4.4706,4.48,4.4814,4.4876,4.4942,4.4946,4.4865,4.4855,4.4993,4.501,4.5028,4.5264,4.5062,4.5072,4.5079,4.5588,4.5597,4.5604,0,0,0,0,0,0,4.4616,4.4645,4.4881,4.4768,4.4796,4.4812,4.4883,4.4882,4.4924,4.4953,4.4955,4.4906,4.4989,4.5011,4.5167,4.5267,4.5078,4.5088,4.558,4.5591,4.5601,4.574,0,0,0,0,0,0,4.4607,4.4643,4.4719,4.477,4.4803,4.5018,4.4889,4.4889,4.4943,4.4931,4.4992,4.4996,4.4986,4.5151,4.5179,4.528,4.5097,4.5571,4.5585,4.5597,4.5726,4.5754,4.5777,0,0,0,0,0,4.4595,4.4755,4.4723,4.4753,4.4898,4.5024,4.5043,4.5026,4.4952,4.5028,4.5047,4.4994,4.5252,4.5167,4.5198,4.5304,4.5565,4.5581,4.5596,4.5715,4.5749,4.5777,0,0,0,0,0,0,4.4717,4.4761,4.4727,4.4907,4.4962,4.5007,4.5103,4.5063,4.5141,4.5127,4.5104,4.5119,4.5282,4.5309,4.5214,4.55,4.5397,4.5419,4.5476,4.5508,4.5533,4.5523,4.5107,0,0,0,0,0,4.4764,4.4862,4.4896,4.5052,4.5081,4.5088,4.5142,4.5124,4.5181,4.5205,4.5235,4.5293,4.5386,4.5449,4.5537,4.573,4.5741,4.5818,4.5843,4.5864,4.5884,4.5985,4.6019,4.5656,4.5656,4.5656,0,0,4.4864,4.49,4.4964,4.5077,4.5118,4.522,4.5108,4.5222,4.5298,4.5223,4.537,4.5394,4.5458,4.5632,4.571,4.566,4.5986,4.5884,4.5901,4.5909,4.6005,4.6039,4.607,4.5667,4.5665,4.5663,0,0,4.5098,4.5136,4.5268,4.5311,4.5373,4.5375,4.5407,4.5458,4.547,4.5618,4.5563,4.5653,4.5816,4.5862,4.5907,4.6156,4.611,4.6186,4.6319,4.6418,4.6446,4.6471,4.6558,4.659,4.6205,4.6206,4.6206,0,4.5214,4.5365,4.5342,4.5459,4.551,4.5444,4.5578,4.5621,4.571,4.5747,4.5688,4.5889,4.5927,4.611,4.617,4.621,4.6245,4.6178,4.6444,4.6469,4.6492,4.6575,4.6608,4.6214,4.6213,4.6212,4.6212,0,4.5504,4.561,4.571,4.5794,4.5857,4.5982,4.5978,4.6044,4.6021,4.603,4.618,4.6223,4.6317,4.636,4.6339,4.654,4.6506,4.6446,4.6342,4.6536,4.6613,4.6644,4.6227,4.6223,4.6221,4.6219,0,0,4.582,4.5887,4.5924,4.5961,4.6023,4.6105,4.6226,4.6317,4.6373,4.6436,4.6537,4.6675,4.6619,4.667,4.6654,4.6741,4.6933,4.667,4.6671,4.6716,4.7154,4.7197,4.7234,4.6902,4.6908,4.6913,4.7148,0,4.6055,4.6264,4.6246,4.6446,4.6542,4.648,4.6585,4.6636,4.6647,4.6731,4.6743,4.6841,4.6761,4.6791,4.6874,4.6892,4.702,4.6875,4.6996,4.7,4.698,4.7275,4.7322,4.7541,4.7178,4.7183,4.7187,0,4.6357,4.6428,4.6636,4.6681,4.6721,4.6816,4.6896,4.6977,4.7032,4.7034,4.709,4.7058,4.718,4.7073,4.7241,4.7142,4.7191,4.7207,4.7215,4.7225,4.7105,4.7291,4.7611,4.7643,4.7235,4.7231,4.7227,0,4.6564,4.6711,4.6854,4.6887,4.6944,4.7012,4.7039,4.7088,4.7142,4.7213,4.7247,4.7332,4.7379,4.7445,4.7437,4.736,4.7607,4.75,4.7611,4.7612,4.7666,4.7662,4.7996,4.77,4.7699,4.7699,4.7698,0,4.6827,4.6957,4.6947,4.7035,4.7177,4.7155,4.7297,4.7317,4.736,4.745,4.7403,4.7489,4.7473,4.7559,4.7554,4.7692,4.7714,4.7719,4.7716,4.7723,4.7722,4.7753,4.7737,4.7707,4.7705,4.7704,4.7702,0,4.7082,4.7081,4.7232,4.7272,4.7285,4.7389,4.7423,4.7506,4.7512,4.7627,4.7653,4.7664,4.7762,4.776,4.7874,4.787,4.8039,4.8019,4.802,4.8016,4.8127,4.8116,4.8492,4.8539,4.8213,4.8216,4.8219,0,4.725,4.7348,4.7398,4.7453,4.7484,4.7576,4.763,4.7612,4.7671,4.7739,4.7814,4.7907,4.7981,4.8142,4.816,4.8245,4.8226,4.8352,4.8239,4.8242,4.8226,4.822,4.8228,4.8374,4.8378,4.8381,4.8383,0,4.7548,4.7541,4.7621,4.77,4.7766,4.7828,4.7885,4.7934,4.7921,4.799,4.8089,4.8146,4.8259,4.8353,4.8434,4.8462,4.8421,4.8419,4.8448,4.8456,4.8451,4.8453,4.8079,4.841,4.8407,4.8405,4.8404,4.8403,4.7763,4.7845,4.7892,4.7982,4.8022,4.8076,4.8155,4.817,4.8251,4.8341,4.8325,4.8436,4.8486,4.8591,4.8627,4.8713,4.8668,4.8713,4.8723,4.8734,4.8745,4.8438,4.8728,4.8727,4.8726,4.8726,4.8725,0,4.8056,4.8082,4.8165,4.8244,4.8315,4.8268,4.8327,4.839,4.8486,4.8536,4.8609,4.8721,4.8811,4.8835,4.8921,4.8985,4.8968,4.9008,4.9003,4.901,4.8781,4.8746,4.902,4.902,4.902,4.902,4.902,4.902,4.8217,4.8353,4.8352,4.8508,4.8533,4.8639,4.8677,4.8726,4.8765,4.8892,4.8965,4.898,4.9019,4.9107,4.9187,4.9191,4.9225,4.9272,4.927,4.9056,4.9026,4.8998,4.8964,4.928,4.9281,4.949,4.9492,4.9494]},{"header":{"parameterUnit":"m.s-1","parameterCategory":1,"la1":30.2991,"la2":30.254,"lo1":-89.0895,"lo2":-89.0444,"dy":0.0017,"dx":0.0017,"nx":28,"ny":28,"refTime":"2024-07-29T09:00:00:Z","depth":0,"parameterNumber":3,"parameterNumberName":"V-component_of_WINDS"},"data":[0,0,0,0,0,0,0,0,0,0,0,0,0,0,0,0,0,0,0,0,0,0,0,0,0,0,0,0,0,0,0,0,0,0,0,0,0,0,0,0,0,0,0,0,0,0,0,0,0,0,0,0,0,0,0,0,0,0,0.4644,0.4644,0,0.4686,0.4687,0.4687,0.4689,0.4689,0.4688,0.4688,0.4731,0.4733,0.4735,0,0,0,0,0,0,0,0,0,0,0,0,0,0.4563,0.4564,0.4644,0.4644,0.4645,0.4686,0.4687,0.4687,0.4689,0.4689,0.4688,0.4688,0.4731,0.4733,0.4735,0,0,0,0,0,0,0,0,0,0,0,0,0,0.4601,0.4565,0.4643,0.4651,0.4652,0.4686,0.4687,0.4688,0.4689,0.4689,0.4688,0.4687,0.473,0.4733,0.4735,0.4765,0,0,0.4743,0.4744,0,0,0,0,0,0,0,0,0.4599,0.4604,0.4649,0.465,0.4651,0.4682,0.4674,0.4714,0.469,0.4675,0.4688,0.4687,0.4715,0.4719,0.4729,0.4767,0.4769,0.4743,0.4744,0.4745,0.4746,0,0,0,0,0,0,0,0.4596,0.4602,0.466,0.465,0.4651,0.4651,0.4656,0.4682,0.4699,0.4676,0.4677,0.4682,0.4716,0.4726,0.473,0.477,0.4743,0.4745,0.4746,0.4747,0.4834,0.4835,0,0,0,0,0,0,0.4592,0.46,0.4659,0.4662,0.4623,0.4653,0.4659,0.4673,0.4699,0.4702,0.4682,0.4682,0.4723,0.4727,0.4731,0.4768,0.4745,0.4748,0.4749,0.4833,0.4834,0.4835,0,0,0,0,0,0,0.459,0.4597,0.4657,0.4631,0.4639,0.4656,0.4672,0.4674,0.4684,0.4703,0.4706,0.469,0.4722,0.4728,0.4757,0.4769,0.4749,0.4751,0.4832,0.4834,0.4835,0.4842,0,0,0,0,0,0,0.4588,0.4597,0.4609,0.4631,0.464,0.4682,0.4672,0.4675,0.4689,0.4688,0.4711,0.4714,0.4722,0.4753,0.4759,0.4772,0.4753,0.4831,0.4833,0.4834,0.484,0.4843,0.4845,0,0,0,0,0,0.4585,0.4609,0.4609,0.4616,0.4655,0.4683,0.4688,0.4697,0.469,0.4702,0.4713,0.4713,0.4767,0.4756,0.4763,0.4777,0.483,0.4832,0.4834,0.4839,0.4842,0.4845,0,0,0,0,0,0,0.4588,0.4612,0.4613,0.4645,0.4662,0.4683,0.4699,0.47,0.4719,0.4718,0.4728,0.4733,0.4761,0.4772,0.4759,0.4807,0.4798,0.4801,0.4799,0.4802,0.4805,0.4802,0.4755,0,0,0,0,0,0.4592,0.4613,0.4633,0.4659,0.4668,0.4682,0.4694,0.4699,0.4717,0.4724,0.4738,0.4756,0.4776,0.479,0.481,0.4842,0.4846,0.4855,0.4857,0.4859,0.4862,0.4879,0.4882,0.4841,0.4841,0.4841,0,0,0.4601,0.4617,0.463,0.466,0.4674,0.4695,0.4688,0.471,0.4726,0.4728,0.4756,0.4766,0.4786,0.4816,0.483,0.4826,0.4874,0.4861,0.4863,0.4865,0.4881,0.4885,0.4888,0.4843,0.4842,0.4842,0,0,0.4629,0.4643,0.4666,0.468,0.4701,0.471,0.4715,0.4736,0.4744,0.4772,0.4773,0.4792,0.4827,0.4841,0.4853,0.4884,0.4885,0.4891,0.4903,0.492,0.4923,0.4926,0.4937,0.494,0.4893,0.4893,0.4893,0,0.4638,0.4669,0.4678,0.47,0.4713,0.4716,0.4739,0.4752,0.4778,0.4787,0.4782,0.4826,0.484,0.4873,0.488,0.489,0.4896,0.4888,0.4922,0.4925,0.4928,0.4938,0.4942,0.4894,0.4894,0.4894,0.4894,0,0.4679,0.4701,0.4717,0.4742,0.4757,0.4779,0.4791,0.4805,0.4808,0.4817,0.4845,0.4862,0.4885,0.4893,0.4897,0.4926,0.4923,0.492,0.4911,0.4932,0.4942,0.4946,0.4895,0.4894,0.4894,0.4894,0,0,0.471,0.4739,0.4744,0.4756,0.4778,0.4795,0.4818,0.484,0.4852,0.4869,0.4888,0.4918,0.4914,0.4928,0.4933,0.4947,0.497,0.4942,0.4943,0.4947,0.5003,0.5006,0.501,0.497,0.4971,0.4972,0.5001,0,0.474,0.478,0.4787,0.4822,0.4842,0.4844,0.4864,0.4879,0.4889,0.4907,0.4916,0.4937,0.4931,0.4939,0.4953,0.4965,0.4982,0.4962,0.4988,0.4989,0.4983,0.5015,0.5018,0.5045,0.5005,0.5006,0.5007,0,0.478,0.4798,0.4835,0.4854,0.4863,0.488,0.4901,0.4919,0.4936,0.4942,0.4956,0.4959,0.4982,0.4972,0.5003,0.4989,0.5,0.5007,0.5008,0.5011,0.4999,0.5019,0.5054,0.5058,0.5013,0.5012,0.5012,0,0.4798,0.4833,0.4859,0.4868,0.4892,0.4904,0.4914,0.4931,0.4943,0.4961,0.497,0.499,0.5001,0.5017,0.5025,0.5017,0.5055,0.5046,0.506,0.506,0.5069,0.5068,0.5106,0.5076,0.5075,0.5075,0.5075,0,0.4831,0.4853,0.4867,0.4884,0.4908,0.4917,0.4941,0.4951,0.4966,0.4983,0.4986,0.5003,0.5013,0.5031,0.5037,0.5062,0.5067,0.5072,0.5073,0.5072,0.5071,0.5079,0.5077,0.5076,0.5076,0.5076,0.5076,0,0.4856,0.4867,0.4895,0.4915,0.492,0.4937,0.4954,0.4969,0.4978,0.5,0.5006,0.502,0.5041,0.505,0.5077,0.5081,0.5109,0.5109,0.5103,0.5103,0.5117,0.5116,0.5162,0.5168,0.5133,0.5134,0.5134,0,0.4876,0.4893,0.4914,0.4926,0.4937,0.4956,0.4969,0.4978,0.4991,0.5012,0.5025,0.5046,0.5063,0.5096,0.5108,0.5128,0.5129,0.5143,0.5132,0.5129,0.5129,0.5127,0.5129,0.5146,0.5146,0.5146,0.5146,0,0.491,0.4915,0.4933,0.4953,0.4968,0.4985,0.5001,0.501,0.5021,0.5036,0.5057,0.5071,0.5097,0.5118,0.5138,0.5148,0.5149,0.515,0.5154,0.5153,0.5148,0.515,0.5108,0.5149,0.5149,0.5148,0.5148,0.5148,0.4934,0.4949,0.4966,0.4986,0.4999,0.5013,0.5029,0.5039,0.5057,0.5079,0.5083,0.5106,0.5122,0.5149,0.516,0.5177,0.5174,0.518,0.5182,0.5183,0.5184,0.5145,0.5181,0.5181,0.5181,0.5181,0.5181,0,0.4968,0.4979,0.4997,0.5019,0.5035,0.5034,0.5052,0.5065,0.5085,0.51,0.5117,0.5141,0.5161,0.5174,0.5194,0.5205,0.5206,0.521,0.521,0.5212,0.5186,0.518,0.5209,0.5209,0.5209,0.5209,0.5209,0.5209,0.4987,0.5013,0.5019,0.505,0.5061,0.5083,0.5093,0.5106,0.5118,0.5145,0.5162,0.517,0.5184,0.5205,0.5223,0.5226,0.5233,0.5237,0.524,0.5217,0.5214,0.5211,0.5205,0.5239,0.5239,0.5264,0.5265,0.5265]}]]